Regional Weather Roundup
Issued by NWS Northern Indiana

Home | Current Version | Previous Version | Text Only | Print | Product List | Glossary Off
Versions: 1 2 3 4 5 6 7 8 9 10 11 12 13 14 15 16 17 18 19 20 21 22 23 24 25 26 27 28 29 30 31 32 33 34 35 36 37 38 39 40 41 42 43 44 45 46 47 48 49 50

359
ASUS43 KIWX 181110
RWRIWX

KIWX WEATHER ROUNDUP
NATIONAL WEATHER SERVICE NORTHERN INDIANA
600 AM EST SAT NOV 18 2017

NOTE: "FAIR" INDICATES FEW OR NO CLOUDS BELOW 12,000 FEET WITH NO
SIGNIFICANT WEATHER AND/OR OBSTRUCTIONS TO VISIBILITY.

* THESE STATIONS ARE NOT UNDER NWS QUALITY CONTROL. THEY ALSO MAY NOT
  REPORT WEATHER SUCH AS PRECIPITATION OR FOG.

INZ001>027-181200-
NORTHERN INDIANA

CITY           SKY/WX    TMP DP  RH WIND       PRES   REMARKS
GARY*          CLOUDY    48  48 100 SE5       29.50F FOG
VALPARAISO     FOG       46  45  96 E5        29.50F VSB 3/4
MICHIGAN CITY* CLOUDY    43  43 100 CALM      29.51F FOG
LAPORTE*       DRZL/FOG  43  43  99 SE5       29.51F VSB 1
KNOX*          CLOUDY    45  43  93 NE5       29.52S
SOUTH BEND     CLOUDY    43  43 100 SE8       29.52F FOG
GOSHEN         CLOUDY    46  43  89 CALM      29.53S FOG
MONTICELLO*    LGT RAIN  51  50  95 CALM      29.49F
LOGANSPORT*    RAIN      50  48  93 S5        29.51F
ROCHESTER*     RAIN      48  48 100 CALM      29.52F
WARSAW*        LGT RAIN  45  45 100 CALM      29.52S
AUBURN*        LGT RAIN  46  45  93 CALM      29.54R
FORT WAYNE     LGT RAIN  49  48  97 S7        29.53F FOG
HUNTINGTON*    RAIN      47  46  96 SW6       29.53S
MARION*        HVY RAIN  48  47  95 S10       29.54R

$$
INZ028>050-181200-
CENTRAL INDIANA

CITY           SKY/WX    TMP DP  RH WIND       PRES   REMARKS
LAFAYETTE      LGT RAIN  51  51 100 S5        29.49F
KOKOMO*        HVY RAIN  54  53  97 SW14G30   29.53S FOG
MUNCIE*        CLOUDY    52  47  83 S13       29.51F
INDIANAPOLIS   CLOUDY    61  52  72 SW22      29.51F

$$
MIZ043>046-050>051-056>058-064>065-071>073-077>080-181200-
SOUTHWEST LOWER MICHIGAN

CITY           SKY/WX    TMP DP  RH WIND       PRES   REMARKS
BATTLE CREEK   CLOUDY    43  42  97 S5        29.51F FOG
BENTON HARBOR  CLOUDY    45  43  93 S3        29.50S FOG
COLDWATER*     CLOUDY    43  43 100 SE6       29.52F FOG
HILLSDALE*     DRIZZLE   43  41  93 S3        29.53S
HOLLAND        CLOUDY    46  43  89 N5        29.51S
GRAND RAPIDS   DRIZZLE   44  44 100 W6        29.51S FOG
KALAMAZOO      CLOUDY    44  41  89 S5        29.52S FOG
STURGIS*       LGT RAIN  43  43 100 SE6       29.52F
THREE RIVERS*  CLOUDY    45  44  98 S3        29.51F FOG

$$
OHZ001>008-015>018-024>025-181200-
NORTHWEST OHIO

CITY           SKY/WX    TMP DP  RH WIND       PRES   REMARKS
WAUSEON*         N/A     45  45 100 S5        29.56R FOG
DEFIANCE       CLOUDY    45  43  93 S3        29.55S
FINDLAY        CLOUDY    48  44  86 S9        29.56S
TOLEDO EXPRESS CLOUDY    46  46 100 VRB5      29.55F FOG
TOLEDO METCALF CLOUDY    45  43  93 S6        29.57F FOG
LIMA           CLOUDY    48  46  93 S13       29.55F

$$
AND FOR LAKE MICHIGAN COASTAL AND OPEN LAKE BUOY OBSERVATIONS

STATION/POSITION TEMP    WIND        PRES    VSBY  WAVE
                 AIR SEA DIR/SP/G                  HT/PER
                 (F)     (DEG/KT/KT) (MB)    (MI)  (FT/S)
MICHIGAN CITY     44     120/  5/  6   N/A
BURNS HARBOR      47        CALM     1000.0S
SAINT JOSEPH      45     150/  4/  6 1000.3
SOUTH LAKE BUOY   45 49  360/ 10/ 12  999.9          2/ 5

$$
&&




USA.gov is the U.S. government's official web portal to all federal, state and local government web resources and services.